Location: Bessat
(45.8735°N, 1.9924°E)
Time: 20:49:25
(UTC+00:00)

JB-3 - Pass Details

Date: 11 May 2021
Orbit: 525 x 589 km, 97.3° (Epoch: 20 June)

Event Time Altitude Azimuth Distance (km) Brightness Sun altitude
Rises 21:14:21 0° 12° (NNE) 2,715 8.4 -17.1°
Reaches altitude 10° 21:16:29 10° 14° (NNE) 1,808 7.5 -17.4°
Maximum altitude 21:20:24 84° 101° (E) 542 4.1 -17.8°
Enters shadow 21:22:04 33° 189° (S) 912 5.0 -17.9°
